Regional Weather Roundup
Issued by NWS Bismarck, ND

Home | Current Version | Previous Version | Text Only | Print | Product List | Glossary On
Versions: 1 2 3 4 5 6 7 8 9 10 11 12 13 14 15 16 17 18 19 20 21 22 23 24 25 26 27 28 29 30 31 32 33 34 35 36 37 38 39 40 41 42 43 44 45 46 47 48 49 50
000
ASUS43 KBIS 170620
RWRBIS

NWR BROADCAST TEXT
NATIONAL WEATHER SERVICE BISMARCK ND
100 AM CDT THU APR 17 2014

NOTE: "FAIR" INDICATES FEW OR NO CLOUDS BELOW 12,000 FEET WITH NO
SIGNIFICANT WEATHER AND/OR OBSTRUCTIONS TO VISIBILITY.


CITY           SKY/WX    TMP DP  RH WIND       PRES   REMARKS
WILLISTON        N/A    N/A N/A N/A MISG      30.27S
MINOT          CLOUDY    23  14  68 E5        30.31R WCI  17
MINOT AFB      CLOUDY    24  16  70 E9        30.31R WCI  15
BISMARCK       CLOUDY    29  16  58 E6        30.28R
DICKINSON      CLOUDY    27  20  75 E6        30.20R
GARRISON         N/A     27  16  63 E14       30.28R WCI  16
HETTINGER ARPT CLOUDY    28  21  75 E8        30.20S WCI  20
JAMESTOWN      FAIR      25  19  78 N10       30.26R WCI  15
CARRINGTON     FAIR      25  18  74 NE13      30.30S WCI  13
CROSBY         CLOUDY    27  18  69 E12       30.29S WCI  16
HARVEY         FAIR      23  18  80 NE10      30.31R WCI  12
HAZEN          CLOUDY    28  16  59 E9        30.28R WCI  20
LINTON         MOCLDY    25  19  80 E6        30.25S WCI  18
MANDAN         CLOUDY    28  14  54 E9        30.27R WCI  20
OAKES          FAIR      23  18  80 N10       30.24S WCI  12
RUGBY          FAIR      19  14  79 NE8       30.32S WCI   9
STANLEY        CLOUDY    25  18  74 E10       30.26S WCI  15
TIOGA          CLOUDY    25  25 100 E8        30.29R WCI  16
WATFORD CITY   CLOUDY    27  23  86 E6        30.23S WCI  20
$$

CITY           SKY/WX    TMP DP  RH WIND       PRES   REMARKS
GRAND FORKS    FAIR      24  19  81 N7        30.27R WCI  16
GRAND FORKS AF FAIR      24  17  73 N10       30.32R WCI  13
DEVILS LAKE    FAIR      23  10  58 NE8       30.32R WCI  14
FARGO          FAIR      29  17  61 N10       30.25R WCI  20
CANDO          FAIR      19  14  79 N8        30.34R WCI   9
CAVALIER       FAIR      25  16  68 N9        30.35S WCI  15
GRAFTON        FAIR      25  14  63 N12       30.34R WCI  14
GWINNER        CLEAR     27  19  74 N8        30.25R WCI  18
LANGDON        FAIR      21  12  68 NE10      30.32R WCI  10
WALHALLA       FAIR      23  16  74 NW8       30.37S WCI  14
$$

CITY           SKY/WX    TMP DP  RH WIND       PRES   REMARKS
ABERDEEN       CLEAR     21  18  88 N8        30.24R WCI  11
MOBRIDGE       PTCLDY    27  17  66 NE9       30.22R WCI  18
BUFFALO          N/A     29  25  85 E12       30.10S WCI  19
RAPID CITY     CLOUDY    31  24  75 S6        30.17S
GLASGOW        CLEAR     25  19  78 E16       30.15F WCI  12
SIDNEY         CLOUDY    28  19  69 E8        30.25S
WOLF POINT     CLOUDY    30  19  63 E12       30.22F
GLENDIVE       CLOUDY    28  21  74 E8        30.20S
MILES CITY     CLOUDY    33  25  72 NE12      30.13S
BAKER          CLOUDY    28  23  81 SE17      30.16S WCI  16
$$

CITY           SKY/WX    TMP DP  RH WIND       PRES   REMARKS
BILLINGS       MOCLDY    36  31  82 NE6       30.05F
GREAT FALLS    PTCLDY    32  30  92 S8        29.94F
REGINA         CLEAR     21  19  93 SE8       30.28S WCI  12
ESTEVAN        PTCLDY    21  16  79 E9        30.30S WCI  11
$$




USA.gov is the U.S. government's official web portal to all federal, state and local government web resources and services.